When you browse on this site, cookies collect data to enhance your experience and personalize the content and advertising you see.
Visit our Privacy Policy to learn more. By continuing to use the site, you agree to this use of cookies and data.
  • In Hungary
  • List of Countries
  • For 7 days
  • Water Temperature
  • Weather Map
  • News
  • Weather Widgets
  • user-avatar
    Login

    Hourly Weather Komissary

    Today, 15 October, Tuesday

    Time Temperature Precipitation Wind Pressure Humidity
    00:00 +10°C° 0 mm 4 mps 749 mmHg 90%
    01:00 +8°C° 0 mm 4 mps 750 mmHg 89%
    02:00 +8°C° 0 mm 3 mps 751 mmHg 88%
    03:00 +8°C° 0 mm 3 mps 752 mmHg 89%
    04:00 +7°C° 0 mm 3 mps 753 mmHg 89%
    05:00 +7°C° 0 mm 3 mps 753 mmHg 89%
    06:00 +6°C° 0 mm 2 mps 754 mmHg 89%
    07:00 +6°C° 0 mm 2 mps 755 mmHg 89%
    08:00 +5°C° 0 mm 2 mps 756 mmHg 89%
    09:00 +6°C° 0 mm 2 mps 756 mmHg 85%
    10:00 +8°C° 0 mm 1 mps 756 mmHg 80%
    11:00 +9°C° 0 mm 1 mps 757 mmHg 75%
    12:00 +8°C° 0 mm 2 mps 757 mmHg 73%
    13:00 +8°C° 0 mm 2 mps 757 mmHg 71%
    14:00 +9°C° 0 mm 2 mps 757 mmHg 68%
    15:00 +8°C° 0 mm 2 mps 757 mmHg 73%
    16:00 +7°C° 0 mm 2 mps 757 mmHg 78%
    17:00 +6°C° 0 mm 2 mps 757 mmHg 82%
    18:00 +6°C° 0 mm 2 mps 757 mmHg 81%
    19:00 +5°C° 0 mm 3 mps 757 mmHg 79%
    20:00 +5°C° 0 mm 3 mps 757 mmHg 78%
    21:00 +5°C° 0 mm 3 mps 757 mmHg 79%
    22:00 +4°C° 0 mm 3 mps 757 mmHg 81%
    23:00 +4°C° 0 mm 3 mps 756 mmHg 82%

    Tomorrow, 16 October, Wednesday

    Time Temperature Precipitation Wind Pressure Humidity
    00:00 +4°C° 0 mm 4 mps 756 mmHg 83%
    01:00 +4°C° 0 mm 4 mps 756 mmHg 85%
    02:00 +4°C° 0 mm 4 mps 756 mmHg 86%
    03:00 +4°C° 0 mm 4 mps 755 mmHg 87%
    04:00 +5°C° 0 mm 4 mps 754 mmHg 89%
    05:00 +5°C° 0 mm 4 mps 753 mmHg 90%
    06:00 +6°C° 0 mm 4 mps 753 mmHg 90%
    07:00 +6°C° 0 mm 4 mps 752 mmHg 89%
    08:00 +7°C° 0 mm 4 mps 752 mmHg 89%
    09:00 +8°C° 0 mm 4 mps 751 mmHg 85%
    10:00 +11°C° 0 mm 4 mps 751 mmHg 82%
    11:00 +12°C° 0 mm 4 mps 750 mmHg 78%
    12:00 +13°C° 0 mm 4 mps 750 mmHg 76%
    13:00 +14°C° 0 mm 4 mps 749 mmHg 74%
    14:00 +15°C° 0 mm 4 mps 749 mmHg 72%
    15:00 +14°C° 0 mm 4 mps 748 mmHg 76%
    16:00 +13°C° 0 mm 3 mps 748 mmHg 80%
    17:00 +13°C° 0 mm 3 mps 747 mmHg 84%
    18:00 +12°C° 0 mm 3 mps 747 mmHg 85%
    19:00 +12°C° 0 mm 3 mps 747 mmHg 86%
    20:00 +12°C° 0 mm 3 mps 747 mmHg 87%
    21:00 +12°C° 0 mm 3 mps 747 mmHg 89%
    22:00 +12°C° 0 mm 3 mps 747 mmHg 90%
    23:00 +12°C° 0 mm 3 mps 747 mmHg 92%

    Day after tomorrow, 17 October, Thursday

    Time Temperature Precipitation Wind Pressure Humidity
    00:00 +12°C° 0.1 mm 3 mps 747 mmHg 92%
    01:00 +13°C° 0.1 mm 3 mps 747 mmHg 92%
    02:00 +13°C° 0.1 mm 3 mps 747 mmHg 93%
    03:00 +12°C° 0 mm 4 mps 748 mmHg 91%
    04:00 +12°C° 0 mm 4 mps 748 mmHg 90%
    05:00 +11°C° 0 mm 4 mps 748 mmHg 89%
    06:00 +11°C° 0 mm 4 mps 748 mmHg 90%
    07:00 +10°C° 0 mm 3 mps 748 mmHg 91%
    08:00 +10°C° 0 mm 3 mps 748 mmHg 91%
    09:00 +11°C° 0 mm 3 mps 749 mmHg 85%
    10:00 +13°C° 0 mm 2 mps 749 mmHg 79%
    11:00 +14°C° 0 mm 2 mps 749 mmHg 72%
    12:00 +14°C° 0.1 mm 2 mps 749 mmHg 73%
    13:00 +14°C° 0.1 mm 2 mps 749 mmHg 73%
    14:00 +14°C° 0.1 mm 2 mps 749 mmHg 73%
    15:00 +13°C° 0.4 mm 1 mps 749 mmHg 79%
    16:00 +12°C° 0.4 mm 1 mps 750 mmHg 86%
    17:00 +10°C° 0.4 mm 0 mps 750 mmHg 92%
    18:00 +11°C° 0.1 mm 1 mps 750 mmHg 93%
    19:00 +11°C° 0.1 mm 1 mps 750 mmHg 94%
    20:00 +9°C° 0.1 mm 2 mps 751 mmHg 94%
    21:00 +9°C° 0 mm 2 mps 751 mmHg 94%
    22:00 +9°C° 0 mm 2 mps 752 mmHg 93%
    23:00 +8°C° 0 mm 2 mps 752 mmHg 93%

    18 October, Friday

    Time Temperature Precipitation Wind Pressure Humidity
    00:00 +8°C° 0 mm 2 mps 753 mmHg 93%
    01:00 +8°C° 0 mm 2 mps 753 mmHg 92%
    02:00 +7°C° 0 mm 2 mps 753 mmHg 92%
    03:00 +8°C° 0 mm 1 mps 754 mmHg 92%
    04:00 +8°C° 0 mm 1 mps 754 mmHg 93%
    05:00 +8°C° 0 mm 1 mps 754 mmHg 93%
    06:00 +8°C° 0 mm 1 mps 754 mmHg 92%
    07:00 +8°C° 0 mm 1 mps 755 mmHg 92%
    08:00 +8°C° 0 mm 1 mps 755 mmHg 92%
    09:00 +9°C° 0 mm 1 mps 755 mmHg 90%
    10:00 +9°C° 0 mm 1 mps 755 mmHg 88%
    11:00 +10°C° 0 mm 1 mps 756 mmHg 87%
    12:00 +10°C° 0 mm 1 mps 756 mmHg 86%
    13:00 +11°C° 0 mm 1 mps 756 mmHg 85%
    14:00 +11°C° 0 mm 1 mps 756 mmHg 84%
    15:00 +11°C° 0 mm 1 mps 756 mmHg 87%
    16:00 +10°C° 0 mm 1 mps 756 mmHg 90%
    17:00 +10°C° 0 mm 1 mps 756 mmHg 93%
    18:00 +10°C° 0 mm 1 mps 756 mmHg 94%
    19:00 +9°C° 0 mm 1 mps 756 mmHg 95%
    20:00 +9°C° 0 mm 1 mps 756 mmHg 96%
    21:00 +9°C° 0 mm 1 mps 756 mmHg 96%
    22:00 +9°C° 0 mm 1 mps 756 mmHg 96%
    23:00 +9°C° 0 mm 1 mps 756 mmHg 96%

    19 October, Saturday

    Time Temperature Precipitation Wind Pressure Humidity
    00:00 +8°C° 0 mm 2 mps 756 mmHg 96%
    01:00 +8°C° 0 mm 2 mps 756 mmHg 96%
    02:00 +8°C° 0 mm 2 mps 756 mmHg 96%
    03:00 +8°C° 0 mm 2 mps 756 mmHg 95%
    04:00 +8°C° 0 mm 2 mps 756 mmHg 95%
    05:00 +8°C° 0 mm 2 mps 756 mmHg 95%
    06:00 +8°C° 0 mm 2 mps 756 mmHg 95%
    07:00 +8°C° 0 mm 2 mps 756 mmHg 95%
    08:00 +8°C° 0 mm 2 mps 756 mmHg 95%
    09:00 +9°C° 0.1 mm 2 mps 757 mmHg 94%
    10:00 +10°C° 0.1 mm 2 mps 757 mmHg 93%
    11:00 +10°C° 0.1 mm 2 mps 757 mmHg 91%
    12:00 +12°C° 0 mm 2 mps 757 mmHg 90%
    13:00 +12°C° 0 mm 2 mps 757 mmHg 88%
    14:00 +13°C° 0 mm 1 mps 757 mmHg 87%
    15:00 +12°C° 0 mm 1 mps 757 mmHg 89%
    16:00 +12°C° 0 mm 1 mps 757 mmHg 91%
    17:00 +11°C° 0 mm 1 mps 757 mmHg 93%
    18:00 +11°C° 0 mm 1 mps 757 mmHg 94%
    19:00 +11°C° 0 mm 1 mps 758 mmHg 95%
    20:00 +10°C° 0 mm 1 mps 758 mmHg 96%
    21:00 +10°C° 0 mm 1 mps 758 mmHg 96%
    22:00 +10°C° 0 mm 1 mps 758 mmHg 96%
    23:00 +10°C° 0 mm 1 mps 758 mmHg 97%

    20 October, Sunday

    Time Temperature Precipitation Wind Pressure Humidity
    00:00 +10°C° 0 mm 1 mps 758 mmHg 97%
    01:00 +9°C° 0 mm 2 mps 758 mmHg 97%
    02:00 +8°C° 0 mm 2 mps 758 mmHg 97%
    03:00 +8°C° 0 mm 2 mps 758 mmHg 96%
    04:00 +8°C° 0 mm 2 mps 758 mmHg 96%
    05:00 +8°C° 0 mm 2 mps 757 mmHg 96%
    06:00 +8°C° 0 mm 2 mps 757 mmHg 95%
    07:00 +8°C° 0 mm 2 mps 757 mmHg 94%
    08:00 +9°C° 0 mm 3 mps 757 mmHg 93%
    09:00 +10°C° 0 mm 3 mps 757 mmHg 87%
    10:00 +11°C° 0 mm 3 mps 757 mmHg 81%
    11:00 +13°C° 0 mm 4 mps 757 mmHg 76%
    12:00 +13°C° 0 mm 3 mps 757 mmHg 77%
    13:00 +13°C° 0 mm 3 mps 757 mmHg 78%
    14:00 +12°C° 0 mm 3 mps 757 mmHg 79%
    15:00 +12°C° 0.1 mm 4 mps 756 mmHg 82%
    16:00 +12°C° 0.1 mm 4 mps 756 mmHg 85%
    17:00 +11°C° 0.1 mm 4 mps 756 mmHg 88%
    18:00 +11°C° 0 mm 4 mps 756 mmHg 87%
    19:00 +11°C° 0 mm 4 mps 756 mmHg 86%
    20:00 +12°C° 0 mm 4 mps 756 mmHg 85%
    21:00 +11°C° 0 mm 4 mps 756 mmHg 84%
    22:00 +11°C° 0 mm 4 mps 756 mmHg 83%
    23:00 +11°C° 0 mm 4 mps 756 mmHg 83%
    Show more